VK4VS Weather Reports


Display with metric or nautical units.
time (UTC)temp
F
wind
direction
speed
MPH
gust
MPH
rain 1hr
in
rain 24hr
in
rain mn
in
humidity
%
barometer
mb
20260509000004 57 84 7.0 14.0 0.00 0.00 0.00 54 1022.2
20260508233004 56 105 7.0 12.0 0.00 0.00 0.00 56 1022.3
20260508230004 54 126 9.0 14.0 0.00 0.00 0.00 59 1022.0
20260508223004 53 121 8.0 14.0 0.00 0.00 0.00 61 1021.8
20260508220004 51 130 8.0 15.0 0.00 0.00 0.00 62 1021.4
20260508213004 49 123 7.0 12.0 0.00 0.00 0.00 66 1020.8
20260508210004 47 120 7.0 10.0 0.00 0.00 0.00 69 1020.5
20260508120054 46 185 3.0 9.0 0.00 0.00 0.00 68 1019.3
20260508113053 46 175 2.0 9.0 0.00 0.00 0.00 70 1019.2
20260508110053 47 154 2.0 4.0 0.00 0.00 0.00 67 1019.3
20260508103053 48 182 1.0 4.0 0.00 0.00 0.00 64 1019.2
20260508100053 48 117 1.0 4.0 0.00 0.00 0.00 63 1018.6
20260508093053 49 165 1.0 5.0 0.00 0.00 0.00 60 1018.5
20260508090053 50 221 1.0 7.0 0.00 0.00 0.00 59 1018.3
20260508083053 51 148 1.0 5.0 0.00 0.00 0.00 56 1017.9
20260508080053 53 210 1.0 7.0 0.00 0.00 0.00 54 1017.6
20260508073053 55 260 2.0 8.0 0.00 0.00 0.00 51 1017.2
20260508070053 57 210 3.0 11.0 0.00 0.00 0.00 46 1016.7
20260508063054 59 231 3.0 9.0 0.00 0.00 0.00 43 1016.5
20260508060054 60 179 3.0 10.0 0.00 0.00 0.00 43 1016.5
20260508053054 60 182 4.0 14.0 0.00 0.00 0.00 42 1016.5
20260508050053 62 142 3.0 9.0 0.00 0.00 0.00 41 1016.6
20260508043053 62 178 4.0 12.0 0.00 0.00 0.00 42 1016.6
20260508040053 62 244 3.0 11.0 0.00 0.00 0.00 40 1016.5
20260508033053 62 196 4.0 9.0 0.00 0.00 0.00 41 1016.7
20260508030053 62 176 4.0 10.0 0.00 0.00 0.00 42 1017.0
20260508023053 61 164 3.0 9.0 0.00 0.00 0.00 40 1017.5
20260508020053 60 161 3.0 9.0 0.00 0.00 0.00 40 1017.9
20260508013053 61 181 3.0 6.0 0.00 0.00 0.00 39 1018.0
20260508010053 59 163 3.0 6.0 0.00 0.00 0.00 41 1018.3
20260508003053 56 152 5.0 9.0 0.00 0.00 0.00 42 1018.7